Location: �perlecques
(50.8057°N, 2.1521°E)
Time: 23:02:08
(UTC+00:00)

STARLINK-60 - Pass Details

Date: 09 April 2020
Orbit: 390 x 399 km, 53.0° (Epoch: 23 May)

Event Time Altitude Azimuth Distance (km) Brightness Sun altitude
Rises 20:22:09 0° 257° (WSW) 2,352 7.5 -15.8°
Reaches altitude 10° 20:24:14 10° 259° (W) 1,489 6.4 -16.0°
Maximum altitude 20:27:35 75° 345° (NNW) 433 3.1 -16.5°
Enters shadow 20:29:15 27° 67° (ENE) 836 4.3 -16.7°
